When you browse on this site, cookies collect data to enhance your experience and personalize the content and advertising you see.
Visit our Privacy Policy to learn more. By continuing to use the site, you agree to this use of cookies and data.
  • In Spain
  • List of Countries
  • For 7 days
  • Water Temperature
  • Weather Map
  • Weather Widgets
  • user-avatar
    Login

    Hourly Weather Serowe

    Today, 28 February, Friday

    Time Temperature Precipitation Wind Pressure Humidity
    00:00 +22°C° 0 mm 1 mps 665 mmHg 37%
    01:00 +22°C° 0 mm 1 mps 665 mmHg 39%
    02:00 +22°C° 0 mm 1 mps 665 mmHg 41%
    03:00 +21°C° 0 mm 1 mps 665 mmHg 44%
    04:00 +20°C° 0 mm 1 mps 665 mmHg 46%
    05:00 +19°C° 0 mm 2 mps 665 mmHg 49%
    06:00 +21°C° 0 mm 2 mps 666 mmHg 46%
    07:00 +23°C° 0 mm 2 mps 667 mmHg 43%
    08:00 +25°C° 0 mm 2 mps 668 mmHg 40%
    09:00 +27°C° 0 mm 3 mps 668 mmHg 34%
    10:00 +30°C° 0 mm 3 mps 669 mmHg 29%
    11:00 +33°C° 0 mm 4 mps 669 mmHg 24%
    12:00 +34°C° 0 mm 4 mps 669 mmHg 22%
    13:00 +35°C° 0 mm 4 mps 668 mmHg 20%
    14:00 +36°C° 0 mm 4 mps 668 mmHg 18%
    15:00 +36°C° 0 mm 4 mps 667 mmHg 17%
    16:00 +36°C° 0 mm 4 mps 666 mmHg 17%
    17:00 +36°C° 0 mm 4 mps 666 mmHg 16%
    18:00 +33°C° 0 mm 4 mps 666 mmHg 21%
    19:00 +30°C° 0 mm 4 mps 666 mmHg 26%
    20:00 +28°C° 0 mm 4 mps 666 mmHg 30%
    21:00 +27°C° 0 mm 5 mps 666 mmHg 36%
    22:00 +26°C° 0 mm 6 mps 667 mmHg 41%
    23:00 +24°C° 0 mm 7 mps 667 mmHg 46%

    Tomorrow, 29 February, Saturday

    Time Temperature Precipitation Wind Pressure Humidity
    00:00 +23°C° 0 mm 7 mps 667 mmHg 56%
    01:00 +21°C° 0 mm 8 mps 667 mmHg 66%
    02:00 +20°C° 0 mm 8 mps 667 mmHg 76%
    03:00 +20°C° 0 mm 8 mps 667 mmHg 76%
    04:00 +20°C° 0 mm 8 mps 667 mmHg 75%
    05:00 +18°C° 0 mm 8 mps 667 mmHg 75%
    06:00 +18°C° 0 mm 8 mps 668 mmHg 74%
    07:00 +18°C° 0 mm 8 mps 668 mmHg 73%
    08:00 +18°C° 0 mm 8 mps 669 mmHg 72%
    09:00 +20°C° 0 mm 8 mps 669 mmHg 67%
    10:00 +21°C° 0 mm 8 mps 669 mmHg 63%
    11:00 +22°C° 0 mm 7 mps 670 mmHg 58%
    12:00 +24°C° 0 mm 7 mps 669 mmHg 52%
    13:00 +27°C° 0 mm 7 mps 669 mmHg 45%
    14:00 +29°C° 0 mm 7 mps 669 mmHg 39%
    15:00 +29°C° 0 mm 7 mps 668 mmHg 40%
    16:00 +28°C° 0 mm 7 mps 668 mmHg 41%
    17:00 +28°C° 0 mm 7 mps 667 mmHg 42%
    18:00 +26°C° 0 mm 6 mps 668 mmHg 48%
    19:00 +23°C° 0 mm 6 mps 668 mmHg 55%
    20:00 +21°C° 0 mm 6 mps 668 mmHg 61%
    21:00 +20°C° 0 mm 6 mps 668 mmHg 65%
    22:00 +20°C° 0 mm 6 mps 669 mmHg 69%
    23:00 +19°C° 0 mm 5 mps 669 mmHg 73%

    Day after tomorrow, 1 March, Sunday

    Time Temperature Precipitation Wind Pressure Humidity
    00:00 +17°C° 0 mm 5 mps 669 mmHg 76%
    01:00 +16°C° 0 mm 5 mps 668 mmHg 78%
    02:00 +16°C° 0 mm 5 mps 668 mmHg 81%
    03:00 +16°C° 0 mm 6 mps 668 mmHg 81%
    04:00 +16°C° 0 mm 6 mps 668 mmHg 82%
    05:00 +15°C° 0 mm 7 mps 668 mmHg 82%
    06:00 +16°C° 0 mm 6 mps 668 mmHg 78%
    07:00 +16°C° 0 mm 6 mps 669 mmHg 74%
    08:00 +16°C° 0 mm 6 mps 669 mmHg 70%
    09:00 +19°C° 0 mm 6 mps 669 mmHg 62%
    10:00 +22°C° 0 mm 6 mps 670 mmHg 53%
    11:00 +24°C° 0 mm 6 mps 670 mmHg 44%
    12:00 +27°C° 0 mm 5 mps 670 mmHg 40%
    13:00 +28°C° 0 mm 5 mps 669 mmHg 37%
    14:00 +30°C° 0 mm 5 mps 668 mmHg 33%
    15:00 +30°C° 0 mm 5 mps 668 mmHg 34%
    16:00 +29°C° 0 mm 4 mps 667 mmHg 34%
    17:00 +29°C° 0 mm 4 mps 667 mmHg 35%
    18:00 +27°C° 0 mm 4 mps 666 mmHg 39%
    19:00 +26°C° 0 mm 3 mps 666 mmHg 44%
    20:00 +24°C° 0 mm 3 mps 666 mmHg 48%
    21:00 +22°C° 0 mm 3 mps 666 mmHg 50%
    22:00 +22°C° 0 mm 3 mps 667 mmHg 51%
    23:00 +21°C° 0 mm 3 mps 667 mmHg 53%

    2 March, Monday

    Time Temperature Precipitation Wind Pressure Humidity
    00:00 +21°C° 0 mm 3 mps 667 mmHg 55%
    01:00 +20°C° 0 mm 3 mps 667 mmHg 57%
    02:00 +19°C° 0 mm 3 mps 666 mmHg 59%
    03:00 +19°C° 0 mm 2 mps 666 mmHg 62%
    04:00 +18°C° 0 mm 2 mps 666 mmHg 65%
    05:00 +17°C° 0 mm 2 mps 666 mmHg 68%
    06:00 +19°C° 0 mm 3 mps 667 mmHg 64%
    07:00 +20°C° 0 mm 3 mps 667 mmHg 60%
    08:00 +21°C° 0 mm 4 mps 668 mmHg 56%
    09:00 +25°C° 0 mm 3 mps 668 mmHg 48%
    10:00 +27°C° 0 mm 3 mps 669 mmHg 40%
    11:00 +30°C° 0 mm 3 mps 669 mmHg 33%
    12:00 +30°C° 0 mm 3 mps 669 mmHg 32%
    13:00 +31°C° 0 mm 2 mps 668 mmHg 31%
    14:00 +31°C° 0 mm 2 mps 667 mmHg 30%
    15:00 +30°C° 0 mm 2 mps 667 mmHg 32%
    16:00 +30°C° 0 mm 2 mps 666 mmHg 33%
    17:00 +29°C° 0 mm 2 mps 666 mmHg 35%
    18:00 +28°C° 0 mm 1 mps 666 mmHg 38%
    19:00 +26°C° 0 mm 1 mps 666 mmHg 41%
    20:00 +25°C° 0 mm 1 mps 666 mmHg 44%
    21:00 +25°C° 0 mm 1 mps 666 mmHg 45%
    22:00 +24°C° 0 mm 1 mps 667 mmHg 47%
    23:00 +21°C° 0 mm 0 mps 667 mmHg 48%

    3 March, Tuesday

    Time Temperature Precipitation Wind Pressure Humidity
    00:00 +23°C° 0 mm 1 mps 667 mmHg 49%
    01:00 +23°C° 0 mm 1 mps 667 mmHg 49%
    02:00 +23°C° 0 mm 1 mps 667 mmHg 49%
    03:00 +23°C° 0 mm 1 mps 667 mmHg 50%
    04:00 +22°C° 0 mm 1 mps 667 mmHg 51%
    05:00 +22°C° 0 mm 1 mps 667 mmHg 53%
    06:00 +23°C° 0 mm 2 mps 668 mmHg 50%
    07:00 +24°C° 0 mm 3 mps 668 mmHg 47%
    08:00 +25°C° 0 mm 3 mps 669 mmHg 43%
    09:00 +27°C° 0 mm 3 mps 669 mmHg 38%
    10:00 +29°C° 0 mm 3 mps 670 mmHg 33%
    11:00 +31°C° 0 mm 3 mps 670 mmHg 28%
    12:00 +33°C° 0 mm 3 mps 670 mmHg 27%
    13:00 +34°C° 0 mm 3 mps 669 mmHg 25%
    14:00 +35°C° 0 mm 3 mps 669 mmHg 24%
    15:00 +34°C° 0 mm 4 mps 668 mmHg 24%
    16:00 +34°C° 0 mm 4 mps 668 mmHg 25%
    17:00 +33°C° 0 mm 4 mps 668 mmHg 26%
    18:00 +32°C° 0 mm 4 mps 668 mmHg 30%
    19:00 +29°C° 0 mm 4 mps 668 mmHg 34%
    20:00 +27°C° 0 mm 4 mps 668 mmHg 39%
    21:00 +26°C° 0 mm 4 mps 668 mmHg 43%
    22:00 +25°C° 0 mm 4 mps 669 mmHg 48%
    23:00 +23°C° 0 mm 4 mps 669 mmHg 53%

    4 March, Wednesday

    Time Temperature Precipitation Wind Pressure Humidity
    00:00 +22°C° 0 mm 4 mps 669 mmHg 59%
    01:00 +21°C° 0 mm 4 mps 669 mmHg 64%
    02:00 +20°C° 0 mm 4 mps 669 mmHg 69%
    03:00 +20°C° 0 mm 4 mps 669 mmHg 73%
    04:00 +19°C° 0 mm 4 mps 669 mmHg 78%
    05:00 +19°C° 0 mm 4 mps 669 mmHg 82%
    06:00 +20°C° 0 mm 5 mps 670 mmHg 79%
    07:00 +20°C° 0 mm 5 mps 670 mmHg 75%
    08:00 +21°C° 0 mm 6 mps 671 mmHg 72%
    09:00 +23°C° 0 mm 6 mps 671 mmHg 62%
    10:00 +26°C° 0 mm 5 mps 671 mmHg 52%
    11:00 +29°C° 0 mm 5 mps 672 mmHg 42%
    12:00 +30°C° 0 mm 6 mps 671 mmHg 37%
    13:00 +32°C° 0 mm 6 mps 671 mmHg 31%
    14:00 +33°C° 0 mm 6 mps 670 mmHg 26%
    15:00 +33°C° 0 mm 6 mps 670 mmHg 25%
    16:00 +32°C° 0 mm 6 mps 669 mmHg 25%
    17:00 +32°C° 0 mm 6 mps 669 mmHg 24%
    18:00 +29°C° 0 mm 5 mps 669 mmHg 28%
    19:00 +26°C° 0 mm 4 mps 668 mmHg 33%
    20:00 +23°C° 0 mm 4 mps 668 mmHg 37%
    21:00 +22°C° 0 mm 3 mps 669 mmHg 40%
    22:00 +21°C° 0 mm 3 mps 669 mmHg 43%
    23:00 +20°C° 0 mm 2 mps 669 mmHg 46%
    Show more